SR9WXM Weather Reports


Display with metric or nautical units.
time (UTC)temp
F
wind
direction
speed
MPH
gust
MPH
rain 1hr
in
rain 24hr
in
rain mn
in
humidity
%
barometer
mb
20260903110241 62 229 2.0 3.0 0.00 0.00 0.00 100
20260903110041 61 234 3.0 9.0 0.00 0.00 0.00 100
20260903105841 61 243 3.0 7.0 0.00 0.00 0.00 100
20260903105641 61 230 5.0 8.0 0.00 0.00 0.00 100
20260903105441 61 249 5.0 8.0 0.00 0.00 0.00 100
20260903105241 61 268 4.0 7.0 0.00 0.00 0.00 100
20260903105041 61 341 4.0 7.0 0.00 0.00 0.00 100
20260903104841 60 265 4.0 7.0 0.00 0.00 0.00 100
20260903104641 61 265 3.0 8.0 0.00 0.00 0.00 100
20260903104439 61 269 4.0 8.0 0.00 0.00 0.00 100
20260903104239 61 268 4.0 10.0 0.00 0.00 0.00 100
20260903104039 61 243 4.0 7.0 0.00 0.00 0.00 100
20260903103839 61 266 3.0 7.0 0.00 0.00 0.00 100
20260903103639 61 270 4.0 9.0 0.00 0.00 0.00 100
20260903103439 61 270 4.0 9.0 0.00 0.00 0.00 100
20260903103239 61 271 4.0 8.0 0.00 0.00 0.00 100
20260903103039 61 257 3.0 8.0 0.00 0.00 0.00 100
20260903102838 60 232 2.0 4.0 0.00 0.00 0.00 100
20260903102638 60 260 3.0 6.0 0.00 0.00 0.00 100
20260903102436 60 270 4.0 7.0 0.00 0.00 0.00 100
20260903102236 60 330 2.0 5.0 0.00 0.00 0.00 100
20260903102036 60 243 2.0 5.0 0.00 0.00 0.00 100
20260903101836 60 237 3.0 6.0 0.00 0.00 0.00 100
20260903101636 60 312 3.0 6.0 0.00 0.00 0.00 100
20260903101436 60 344 2.0 4.0 0.00 0.00 0.00 100
20260903101236 60 294 2.0 4.0 0.00 0.00 0.00 100
20260903101037 60 357 2.0 4.0 0.00 0.00 0.00 100
20260903100836 60 5 2.0 4.0 0.00 0.00 0.00 100
20260903100636 59 282 2.0 4.0 0.00 0.00 0.00 100
20260903100434 59 186 1.0 2.0 0.00 0.00 0.00 100
20260903100234 59 193 1.0 4.0 0.00 0.00 0.00 100
20260903100034 59 342 2.0 4.0 0.00 0.00 0.00 100
20260903095834 59 3 4.0 7.0 0.00 0.00 0.00 100
20260903095634 59 353 2.0 7.0 0.00 0.00 0.00 100
20260903095434 59 341 3.0 6.0 0.00 0.00 0.00 100
20260903095234 59 343 1.0 6.0 0.00 0.00 0.00 100
20260903095034 59 2 3.0 6.0 0.00 0.00 0.00 100
20260903094834 59 18 3.0 6.0 0.00 0.00 0.00 100
20260903094634 59 343 2.0 5.0 0.00 0.00 0.00 100
20260903094432 59 278 3.0 7.0 0.00 0.00 0.00 100
20260903094232 59 328 3.0 7.0 0.00 0.00 0.00 100
20260903094032 59 347 3.0 6.0 0.00 0.00 0.00 100
20260903093832 59 6 4.0 7.0 0.00 0.00 0.00 100
20260903093632 59 348 2.0 5.0 0.00 0.00 0.00 100
20260903093432 59 317 2.0 5.0 0.00 0.00 0.00 100
20260903093232 59 346 2.0 4.0 0.00 0.00 0.00 100
20260903093032 59 0 1.0 4.0 0.00 0.00 0.00 100
20260903092840 59 352 3.0 5.0 0.00 0.00 0.00 100
20260903092632 59 342 3.0 6.0 0.00 0.00 0.00 100
20260903092430 59 347 2.0 5.0 0.00 0.00 0.00 100
20260903092230 59 286 4.0 7.0 0.00 0.00 0.00 100
20260903092030 59 325 4.0 7.0 0.00 0.00 0.00 100
20260903091823 59 333 4.0 8.0 0.00 0.00 0.00 100
20260903091623 59 325 2.0 7.0 0.00 0.00 0.00 100
20260903091423 59 329 3.0 7.0 0.00 0.00 0.00 100
20260903091223 59 340 3.0 6.0 0.00 0.00 0.00 100
20260903091023 59 353 4.0 6.0 0.00 0.00 0.00 100
20260903090823 59 10 3.0 4.0 0.00 0.00 0.00 100
20260903090623 59 298 2.0 5.0 0.00 0.00 0.00 100
20260903090420 59 332 4.0 6.0 0.00 0.00 0.00 100
20260903090220 59 349 4.0 7.0 0.00 0.00 0.00 100
20260903090021 59 36 3.0 6.0 0.00 0.00 0.00 100